Regional Weather Roundup
Issued by NWS

Home | Current Version | Previous Version | Text Only | Print | Product List | Glossary Off
Versions: 1 2 3 4 5 6 7 8 9 10 11 12 13 14 15 16 17 18 19 20 21 22 23 24 25 26 27 28 29 30 31 32 33 34 35 36 37 38 39 40 41 42 43 44 45 46 47 48 49 50

113
ASUS43 KBIS 211902
RWRND

NORTH DAKOTA REGIONAL WEATHER ROUNDUP
NATIONAL WEATHER SERVICE BISMARCK ND
200 PM CDT SAT OCT 21 2017

NOTE: "FAIR" INDICATES FEW OR NO CLOUDS BELOW 12,000 FEET WITH NO
SIGNIFICANT WEATHER AND/OR OBSTRUCTIONS TO VISIBILITY.


NDZ001>003-009>011-017-212000-
NORTHWEST NORTH DAKOTA

CITY           SKY/WX    TMP DP  RH WIND       PRES   REMARKS
WILLISTON      CLOUDY    49  36  61 W26G38    29.63R
MINOT          CLOUDY    51  38  60 W23G33    29.55R
MINOT AFB      CLOUDY    50  38  64 W23G33    29.52R
$$

NDZ018>021-031>035-040>046-212000-
SOUTHWEST NORTH DAKOTA

CITY           SKY/WX    TMP DP  RH WIND       PRES   REMARKS
BISMARCK       CLOUDY    51  40  65 W12       29.65R
DICKINSON      CLOUDY    47  38  71 W28G38    29.65S
GARRISON         N/A     49  38  65 W22G36    29.59R
HETTINGER ARPT CLOUDY    51  32  48 W32G45    29.71S
$$

NDZ004>008-012>016-024-026-027-054-212000-
NORTHEAST NORTH DAKOTA

CITY           SKY/WX    TMP DP  RH WIND       PRES   REMARKS
GRAND FORKS    PTSUNNY   66  43  43 W15       29.45F
GRND FRKS AFB  SUNNY     64  41  42 W13G20    29.47S
DEVILS LAKE    PTSUNNY   53  41  63 W24G30    29.53R
$$

NDZ022-023-025-028>030-036>039-047>053-212000-
SOUTHEAST NORTH DAKOTA

CITY           SKY/WX    TMP DP  RH WIND       PRES   REMARKS
FARGO          CLOUDY    61  44  53 W8        29.51R
JAMESTOWN      CLOUDY    53  41  63 W20G29    29.58R
$$





USA.gov is the U.S. government's official web portal to all federal, state and local government web resources and services.